SAS1717 EFHK-EKCH

Flight info

Callsign SAS1717
Flight time 1h 3m
Altitude 38000
Route NUNTO Y369 REKDO DCT KOSKA DCT TOKSI N872 ERNOV
Aircraft B738/M-SDE2E3FGHIRWXY/LB1

Departure

Time 2026-05-04 20:33
Airport Helsinki Vantaa Airport (EFHK)

Arrival

Time 2026-05-04 21:37
Airport Copenhagen Kastrup Airport (EKCH)
Time Latitude Longitude Altitude Speed Heading
2026-05-04 20:04 60.31904 24.96968 162 ft 0 kts 242°
2026-05-04 20:20 60.31910 24.96992 162 ft 2 kts 242°
2026-05-04 20:20 60.31917 24.97021 162 ft 2 kts 242°
2026-05-04 20:20 60.31925 24.97054 162 ft 2 kts 264°
2026-05-04 20:21 60.31924 24.97086 162 ft 2 kts 300°
2026-05-04 20:21 60.31919 24.97099 162 ft 0 kts 330°
2026-05-04 20:24 60.31934 24.97082 162 ft 8 kts 330°
2026-05-04 20:24 60.31999 24.97009 162 ft 12 kts 331°
2026-05-04 20:25 60.32069 24.96932 162 ft 11 kts 331°
2026-05-04 20:25 60.32136 24.96857 163 ft 11 kts 330°
2026-05-04 20:25 60.32200 24.96784 164 ft 10 kts 330°
2026-05-04 20:25 60.32268 24.96707 165 ft 12 kts 330°
2026-05-04 20:26 60.32283 24.96689 165 ft 0 kts 330°
2026-05-04 20:28 60.32316 24.96650 167 ft 7 kts 330°
2026-05-04 20:28 60.32366 24.96592 171 ft 11 kts 330°
2026-05-04 20:28 60.32464 24.96478 174 ft 23 kts 330°
2026-05-04 20:29 60.32614 24.96302 172 ft 25 kts 329°
2026-05-04 20:29 60.32756 24.96133 172 ft 23 kts 329°
2026-05-04 20:29 60.32890 24.95973 174 ft 22 kts 329°
2026-05-04 20:29 60.33017 24.95823 180 ft 21 kts 329°
2026-05-04 20:30 60.33128 24.95658 179 ft 19 kts 318°
2026-05-04 20:30 60.33197 24.95510 181 ft 13 kts 299°
2026-05-04 20:30 60.33178 24.95340 179 ft 14 kts 232°
2026-05-04 20:30 60.33117 24.95164 176 ft 18 kts 248°
2026-05-04 20:31 60.33110 24.94863 178 ft 23 kts 272°
2026-05-04 20:31 60.33117 24.94545 185 ft 22 kts 272°
2026-05-04 20:31 60.33070 24.94302 191 ft 0 kts 227°
2026-05-04 20:31 60.33069 24.94300 191 ft 0 kts 227°
2026-05-04 20:32 60.32914 24.93962 183 ft 76 kts 227°
2026-05-04 20:33 60.32372 24.92776 172 ft 155 kts 227°
2026-05-04 20:33 60.31499 24.90897 535 ft 195 kts 226°
2026-05-04 20:33 60.30534 24.88851 1402 ft 211 kts 227°
2026-05-04 20:33 60.29650 24.86374 2169 ft 227 kts 251°
2026-05-04 20:34 60.29612 24.83029 2617 ft 254 kts 286°
2026-05-04 20:34 60.30095 24.79694 3708 ft 241 kts 283°
2026-05-04 20:34 60.30086 24.76354 4116 ft 240 kts 251°
2026-05-04 20:34 60.29460 24.73206 4292 ft 244 kts 248°
2026-05-04 20:35 60.28813 24.70043 4300 ft 243 kts 248°
2026-05-04 20:35 60.28162 24.66852 4305 ft 243 kts 248°
2026-05-04 20:35 60.27528 24.63751 4311 ft 243 kts 248°
2026-05-04 20:35 60.26885 24.60597 4333 ft 245 kts 248°
2026-05-04 20:36 60.26231 24.57402 4780 ft 249 kts 248°
2026-05-04 20:36 60.25548 24.54071 5192 ft 264 kts 248°
2026-05-04 20:36 60.24837 24.50608 5820 ft 269 kts 248°
2026-05-04 20:36 60.24091 24.47135 6530 ft 271 kts 244°
2026-05-04 20:37 60.23215 24.43756 7222 ft 274 kts 242°
2026-05-04 20:37 60.22291 24.40370 7891 ft 277 kts 241°
2026-05-04 20:37 60.21355 24.36962 8554 ft 280 kts 241°
2026-05-04 20:37 60.20413 24.33517 9209 ft 282 kts 241°
2026-05-04 20:38 60.19464 24.30035 9847 ft 285 kts 242°
2026-05-04 20:38 60.18503 24.26498 10340 ft 295 kts 242°
2026-05-04 20:38 60.17492 24.22775 10487 ft 315 kts 242°
2026-05-04 20:38 60.16428 24.18850 10635 ft 333 kts 242°
2026-05-04 20:39 60.15299 24.14692 10893 ft 346 kts 242°
2026-05-04 20:39 60.14137 24.10417 11381 ft 351 kts 242°
2026-05-04 20:39 60.12960 24.06092 11961 ft 352 kts 242°
2026-05-04 20:39 60.11782 24.01766 12540 ft 355 kts 241°
2026-05-04 20:40 60.10618 23.97500 13078 ft 358 kts 241°
2026-05-04 20:40 60.09413 23.93099 13637 ft 361 kts 241°
2026-05-04 20:40 60.08200 23.88672 14197 ft 364 kts 242°
2026-05-04 20:40 60.07007 23.84192 14784 ft 366 kts 242°
2026-05-04 20:41 60.05822 23.79666 15348 ft 369 kts 243°
2026-05-04 20:41 60.04629 23.75094 15889 ft 372 kts 243°
2026-05-04 20:41 60.03425 23.70489 16423 ft 375 kts 242°
2026-05-04 20:41 60.02209 23.65854 16945 ft 378 kts 242°
2026-05-04 20:42 60.00982 23.61196 17451 ft 380 kts 242°
2026-05-04 20:42 59.99741 23.56496 17942 ft 383 kts 242°
2026-05-04 20:42 59.98489 23.51771 18421 ft 386 kts 242°
2026-05-04 20:42 59.97226 23.47014 18889 ft 389 kts 242°
2026-05-04 20:43 59.95967 23.42284 19336 ft 391 kts 242°
2026-05-04 20:43 59.94683 23.37469 19781 ft 394 kts 242°
2026-05-04 20:43 59.93388 23.32627 20206 ft 397 kts 242°
2026-05-04 20:43 59.92082 23.27753 20626 ft 399 kts 242°
2026-05-04 20:44 59.90769 23.22860 21033 ft 402 kts 242°
2026-05-04 20:44 59.89444 23.17937 21422 ft 404 kts 242°
2026-05-04 20:44 59.88111 23.12994 21812 ft 407 kts 242°
2026-05-04 20:44 59.86767 23.08021 22176 ft 409 kts 242°
2026-05-04 20:45 59.85415 23.03026 22534 ft 411 kts 242°
2026-05-04 20:45 59.84076 22.98095 22880 ft 413 kts 242°
2026-05-04 20:45 59.82705 22.93053 23224 ft 416 kts 242°
2026-05-04 20:45 59.81325 22.87988 23558 ft 418 kts 242°
2026-05-04 20:46 59.79937 22.82901 23878 ft 420 kts 242°
2026-05-04 20:46 59.78538 22.77794 24189 ft 422 kts 242°
2026-05-04 20:46 59.77132 22.72671 24494 ft 424 kts 242°
2026-05-04 20:46 59.75733 22.67589 24784 ft 426 kts 241°
2026-05-04 20:47 59.74307 22.62420 25064 ft 427 kts 241°
2026-05-04 20:47 59.72878 22.57248 25340 ft 429 kts 241°
2026-05-04 20:47 59.71438 22.52047 25606 ft 431 kts 241°
2026-05-04 20:47 59.69993 22.46835 25868 ft 433 kts 241°
2026-05-04 20:48 59.68538 22.41602 26119 ft 434 kts 241°
2026-05-04 20:48 59.66681 22.34937 26429 ft 437 kts 241°
2026-05-04 20:48 59.63731 22.24392 26892 ft 440 kts 241°
2026-05-04 20:48 59.60746 22.13770 27329 ft 443 kts 241°
2026-05-04 20:49 59.57739 22.03119 27733 ft 446 kts 241°
2026-05-04 20:49 59.54760 21.92617 28122 ft 448 kts 241°
2026-05-04 20:49 59.51738 21.82009 28484 ft 451 kts 240°
2026-05-04 20:49 59.48647 21.71210 28830 ft 453 kts 240°
2026-05-04 20:50 59.45537 21.60388 29160 ft 456 kts 240°
2026-05-04 20:50 59.42399 21.49528 29467 ft 458 kts 240°
2026-05-04 20:50 59.39235 21.38614 29764 ft 460 kts 240°
2026-05-04 20:50 59.36059 21.27703 30028 ft 462 kts 240°
2026-05-04 20:51 59.32863 21.16772 30325 ft 462 kts 240°
2026-05-04 20:51 59.29658 21.05865 30742 ft 460 kts 240°
2026-05-04 20:51 59.26519 20.95229 31025 ft 461 kts 240°
2026-05-04 20:51 59.23312 20.84411 31402 ft 459 kts 240°
2026-05-04 20:52 59.20102 20.73627 31695 ft 459 kts 240°
2026-05-04 20:52 59.16960 20.62788 32046 ft 458 kts 242°
2026-05-04 20:52 59.14086 20.51712 32327 ft 458 kts 244°
2026-05-04 20:52 59.11256 20.40602 32664 ft 457 kts 243°
2026-05-04 20:53 59.08396 20.29537 32935 ft 457 kts 243°
2026-05-04 20:53 59.05517 20.18546 33253 ft 455 kts 243°
2026-05-04 20:53 59.02668 20.07755 33502 ft 456 kts 243°
2026-05-04 20:53 58.99837 19.97085 33803 ft 454 kts 243°
2026-05-04 20:54 58.96932 19.86189 34045 ft 455 kts 243°
2026-05-04 20:54 58.94024 19.75334 34330 ft 453 kts 243°
2026-05-04 20:54 58.91101 19.64469 34557 ft 453 kts 242°
2026-05-04 20:54 58.88185 19.53684 34833 ft 452 kts 242°
2026-05-04 20:55 58.86252 19.46563 34971 ft 452 kts 242°
2026-05-04 20:55 58.84785 19.41176 35073 ft 452 kts 242°
2026-05-04 20:55 58.83318 19.35798 35210 ft 452 kts 242°
2026-05-04 20:55 58.81852 19.30440 35330 ft 451 kts 242°
2026-05-04 20:56 58.80384 19.25082 35434 ft 451 kts 242°
2026-05-04 20:56 58.78935 19.19809 35537 ft 451 kts 242°
2026-05-04 20:56 58.77464 19.14467 35652 ft 451 kts 242°
2026-05-04 20:56 58.75992 19.09137 35758 ft 451 kts 242°
2026-05-04 20:57 58.73062 18.98558 35956 ft 450 kts 242°
2026-05-04 20:57 58.71583 18.93241 36062 ft 450 kts 242°
2026-05-04 20:57 58.70104 18.87931 36161 ft 450 kts 242°
2026-05-04 20:58 58.67736 18.79461 36289 ft 450 kts 242°
2026-05-04 20:58 58.64767 18.68881 36473 ft 450 kts 242°
2026-05-04 20:58 58.61789 18.58318 36622 ft 450 kts 242°
2026-05-04 20:58 58.58837 18.47896 36795 ft 450 kts 242°
2026-05-04 20:59 58.55835 18.37347 36936 ft 450 kts 241°
2026-05-04 20:59 58.52833 18.26846 37107 ft 450 kts 241°
2026-05-04 20:59 58.49809 18.16315 37228 ft 450 kts 241°
2026-05-04 20:59 58.46794 18.05862 37379 ft 450 kts 241°
2026-05-04 21:00 58.43807 17.95556 37504 ft 450 kts 241°
2026-05-04 21:00 58.41795 17.88638 37593 ft 450 kts 241°
2026-05-04 21:00 58.38750 17.78207 37704 ft 450 kts 241°
2026-05-04 21:00 58.35701 17.67812 37846 ft 449 kts 241°
2026-05-04 21:01 58.31648 17.54063 38005 ft 448 kts 240°
2026-05-04 21:01 58.29579 17.47077 38004 ft 448 kts 240°
2026-05-04 21:01 58.23449 17.26497 38008 ft 450 kts 240°
2026-05-04 21:02 58.17258 17.05896 38004 ft 451 kts 240°
2026-05-04 21:02 58.11089 16.85548 38003 ft 452 kts 240°
2026-05-04 21:03 58.04732 16.64815 38000 ft 453 kts 238°
2026-05-04 21:03 57.96981 16.46360 38003 ft 453 kts 230°
2026-05-04 21:04 57.89000 16.27981 38000 ft 453 kts 231°
2026-05-04 21:04 57.81072 16.09570 38001 ft 453 kts 231°
2026-05-04 21:05 57.73177 15.91377 38001 ft 453 kts 231°
2026-05-04 21:05 57.65223 15.73194 38001 ft 453 kts 231°
2026-05-04 21:06 57.57216 15.55031 38001 ft 453 kts 231°
2026-05-04 21:06 57.49194 15.36972 38002 ft 453 kts 230°
2026-05-04 21:07 57.41139 15.18976 38003 ft 453 kts 230°
2026-05-04 21:07 57.33067 15.01077 38002 ft 452 kts 230°
2026-05-04 21:08 57.27929 14.89754 38000 ft 452 kts 230°
2026-05-04 21:08 57.25880 14.85252 37571 ft 460 kts 230°
2026-05-04 21:08 57.23817 14.80729 37056 ft 458 kts 230°
2026-05-04 21:09 57.21770 14.76250 36469 ft 454 kts 230°
2026-05-04 21:09 57.19738 14.71813 35886 ft 450 kts 230°
2026-05-04 21:09 57.17718 14.67410 35235 ft 448 kts 230°
2026-05-04 21:09 57.15702 14.63024 34585 ft 446 kts 230°
2026-05-04 21:10 57.13698 14.58671 33939 ft 444 kts 230°
2026-05-04 21:10 57.11739 14.54425 33497 ft 437 kts 230°
2026-05-04 21:10 57.09780 14.50186 33021 ft 432 kts 230°
2026-05-04 21:10 57.07843 14.46002 32573 ft 426 kts 230°
2026-05-04 21:11 57.05936 14.41890 32128 ft 420 kts 230°
2026-05-04 21:11 57.04051 14.37831 31682 ft 415 kts 230°
2026-05-04 21:11 57.02186 14.33823 31244 ft 408 kts 230°
2026-05-04 21:11 57.00351 14.29886 30741 ft 405 kts 230°
2026-05-04 21:12 56.98511 14.25946 29848 ft 411 kts 230°
2026-05-04 21:12 56.96642 14.21948 28976 ft 417 kts 230°
2026-05-04 21:12 56.94761 14.17932 28222 ft 417 kts 229°
2026-05-04 21:12 56.92878 14.13919 27660 ft 413 kts 229°
2026-05-04 21:13 56.91034 14.09998 27149 ft 408 kts 229°
2026-05-04 21:13 56.89180 14.06059 26598 ft 403 kts 229°
2026-05-04 21:13 56.87355 14.02188 26022 ft 400 kts 229°
2026-05-04 21:13 56.85579 13.98428 25456 ft 397 kts 229°
2026-05-04 21:14 56.83784 13.94634 24899 ft 393 kts 229°
2026-05-04 21:14 56.82002 13.90874 24355 ft 390 kts 229°
2026-05-04 21:14 56.80235 13.87151 23892 ft 384 kts 229°
2026-05-04 21:14 56.78500 13.83502 23457 ft 378 kts 229°
2026-05-04 21:15 56.76789 13.79907 23030 ft 373 kts 229°
2026-05-04 21:15 56.75102 13.76369 22604 ft 367 kts 229°
2026-05-04 21:15 56.73439 13.72885 22192 ft 362 kts 229°
2026-05-04 21:15 56.71798 13.69454 21786 ft 357 kts 229°
2026-05-04 21:16 56.70180 13.66076 21386 ft 352 kts 229°
2026-05-04 21:16 56.68573 13.62724 20992 ft 350 kts 229°
2026-05-04 21:16 56.66995 13.59438 20605 ft 347 kts 229°
2026-05-04 21:16 56.65398 13.56116 20220 ft 352 kts 229°
2026-05-04 21:17 56.63757 13.52707 19824 ft 362 kts 229°
2026-05-04 21:17 56.62096 13.49263 19398 ft 361 kts 229°
2026-05-04 21:17 56.60455 13.45865 18977 ft 355 kts 229°
2026-05-04 21:17 56.58835 13.42516 18574 ft 350 kts 229°
2026-05-04 21:18 56.57244 13.39231 18172 ft 344 kts 229°
2026-05-04 21:18 56.55673 13.35994 17787 ft 339 kts 229°
2026-05-04 21:18 56.54125 13.32806 17398 ft 334 kts 229°
2026-05-04 21:18 56.52614 13.29697 17022 ft 329 kts 229°
2026-05-04 21:19 56.51115 13.26620 16656 ft 327 kts 229°
2026-05-04 21:19 56.49621 13.23555 16287 ft 325 kts 229°
2026-05-04 21:19 56.48097 13.20433 15913 ft 332 kts 229°
2026-05-04 21:19 56.46549 13.17265 15537 ft 339 kts 229°
2026-05-04 21:20 56.44986 13.14073 15130 ft 337 kts 229°
2026-05-04 21:20 56.43446 13.10931 14738 ft 331 kts 229°
2026-05-04 21:20 56.41931 13.07844 14348 ft 325 kts 229°
2026-05-04 21:20 56.40460 13.04851 13983 ft 320 kts 229°
2026-05-04 21:21 56.38995 13.01873 13617 ft 315 kts 229°
2026-05-04 21:21 56.37575 12.98989 13259 ft 311 kts 229°
2026-05-04 21:21 56.36140 12.96080 12905 ft 310 kts 229°
2026-05-04 21:21 56.34706 12.93176 12549 ft 311 kts 229°
2026-05-04 21:22 56.33250 12.90230 12198 ft 319 kts 229°
2026-05-04 21:22 56.31761 12.87223 11819 ft 322 kts 229°
2026-05-04 21:22 56.30279 12.84232 11429 ft 317 kts 228°
2026-05-04 21:22 56.28819 12.81290 11028 ft 312 kts 228°
2026-05-04 21:23 56.27384 12.78402 10655 ft 307 kts 228°
2026-05-04 21:23 56.25980 12.75580 10463 ft 296 kts 228°
2026-05-04 21:23 56.24635 12.72877 10321 ft 284 kts 228°
2026-05-04 21:23 56.23343 12.70284 10195 ft 273 kts 228°
2026-05-04 21:24 56.22098 12.67788 10085 ft 265 kts 228°
2026-05-04 21:24 56.20890 12.65373 9974 ft 262 kts 228°
2026-05-04 21:24 56.19639 12.62873 9718 ft 270 kts 228°
2026-05-04 21:24 56.18352 12.60446 9464 ft 274 kts 219°
2026-05-04 21:25 56.16641 12.59047 9176 ft 271 kts 188°
2026-05-04 21:25 56.14795 12.59295 8922 ft 266 kts 163°
2026-05-04 21:25 56.13106 12.60568 8666 ft 261 kts 154°
2026-05-04 21:25 56.11490 12.61995 8393 ft 257 kts 154°
2026-05-04 21:26 56.09902 12.63422 8128 ft 254 kts 154°
2026-05-04 21:26 56.08327 12.64833 7872 ft 253 kts 154°
2026-05-04 21:26 56.06737 12.66248 7624 ft 257 kts 154°
2026-05-04 21:26 56.05112 12.67684 7380 ft 261 kts 154°
2026-05-04 21:27 56.03535 12.69072 7314 ft 244 kts 154°
2026-05-04 21:27 56.02056 12.70368 7185 ft 230 kts 154°
2026-05-04 21:27 56.00663 12.71586 7065 ft 216 kts 154°
2026-05-04 21:27 55.99353 12.72728 6564 ft 220 kts 154°
2026-05-04 21:28 55.98002 12.73905 6232 ft 217 kts 154°
2026-05-04 21:28 55.96667 12.75065 5978 ft 209 kts 154°
2026-05-04 21:28 55.95381 12.76182 5739 ft 202 kts 154°
2026-05-04 21:28 55.94125 12.77273 5543 ft 201 kts 154°
2026-05-04 21:29 55.92864 12.78366 5346 ft 202 kts 154°
2026-05-04 21:29 55.91600 12.79461 5148 ft 203 kts 154°
2026-05-04 21:29 55.90323 12.80566 4937 ft 205 kts 154°
2026-05-04 21:29 55.89033 12.81681 4724 ft 207 kts 154°
2026-05-04 21:30 55.87731 12.82807 4512 ft 207 kts 154°
2026-05-04 21:30 55.86464 12.83902 4337 ft 197 kts 154°
2026-05-04 21:30 55.85277 12.84928 4229 ft 183 kts 154°
2026-05-04 21:30 55.84135 12.85913 4135 ft 182 kts 155°
2026-05-04 21:31 55.81900 12.87837 3945 ft 175 kts 155°
2026-05-04 21:31 55.80791 12.88791 3887 ft 179 kts 155°
2026-05-04 21:31 55.79661 12.89762 3816 ft 181 kts 155°
2026-05-04 21:32 55.78515 12.90554 3701 ft 180 kts 175°
2026-05-04 21:32 55.77374 12.89898 3561 ft 175 kts 222°
2026-05-04 21:32 55.76469 12.88431 3417 ft 176 kts 221°
2026-05-04 21:32 55.75570 12.87005 3350 ft 175 kts 223°
2026-05-04 21:33 55.74665 12.85553 3138 ft 175 kts 222°
2026-05-04 21:33 55.73753 12.84123 2904 ft 174 kts 221°
2026-05-04 21:33 55.72848 12.82719 2669 ft 170 kts 221°
2026-05-04 21:33 55.71961 12.81346 2467 ft 169 kts 221°
2026-05-04 21:34 55.71071 12.79969 2236 ft 170 kts 221°
2026-05-04 21:34 55.70189 12.78604 2010 ft 168 kts 221°
2026-05-04 21:34 55.69312 12.77248 1782 ft 167 kts 221°
2026-05-04 21:34 55.68434 12.75889 1559 ft 167 kts 221°
2026-05-04 21:35 55.67559 12.74533 1337 ft 167 kts 221°
2026-05-04 21:35 55.66698 12.73201 1107 ft 162 kts 221°
2026-05-04 21:35 55.65857 12.71898 901 ft 160 kts 221°
2026-05-04 21:35 55.65017 12.70596 688 ft 161 kts 221°
2026-05-04 21:36 55.64177 12.69294 475 ft 160 kts 221°
2026-05-04 21:36 55.63344 12.68002 272 ft 158 kts 221°
2026-05-04 21:36 55.62514 12.66716 58 ft 158 kts 221°
2026-05-04 21:36 55.61745 12.65523 18 ft 110 kts 221°
2026-05-04 21:37 55.61439 12.65046 19 ft 38 kts 221°
2026-05-04 21:37 55.61270 12.64689 22 ft 39 kts 245°
2026-05-04 21:37 55.61209 12.64385 18 ft 0 kts 251°
2026-05-04 21:37 55.61207 12.64376 18 ft 1 kts 251°
2026-05-04 21:38 55.61204 12.64362 20 ft 2 kts 251°
2026-05-04 21:38 55.61200 12.64341 18 ft 2 kts 251°
2026-05-04 21:38 55.61193 12.64301 17 ft 5 kts 252°
2026-05-04 21:38 55.61191 12.64198 15 ft 12 kts 286°
2026-05-04 21:39 55.61263 12.64111 15 ft 15 kts
2026-05-04 21:39 55.61359 12.64209 15 ft 18 kts 31°
2026-05-04 21:39 55.61471 12.64338 19 ft 21 kts 34°
2026-05-04 21:39 55.61614 12.64505 20 ft 27 kts 31°
2026-05-04 21:40 55.61787 12.64696 18 ft 32 kts 33°
2026-05-04 21:40 55.61986 12.64925 19 ft 35 kts 33°
2026-05-04 21:40 55.62156 12.65124 25 ft 23 kts 33°
2026-05-04 21:40 55.62304 12.65197 21 ft 21 kts 359°
2026-05-04 21:41 55.62446 12.65187 19 ft 20 kts 357°
2026-05-04 21:41 55.62572 12.65175 18 ft 17 kts 356°
2026-05-04 21:41 55.62654 12.65238 18 ft 11 kts 65°
2026-05-04 21:41 55.62696 12.65353 17 ft 12 kts 19°
2026-05-04 21:42 55.62724 12.65373 18 ft 0 kts 28°